Time,TemperatureF,DewpointF,PressureIn,WindDirection,WindDirectionDegrees,WindSpeedMPH,WindSpeedGustMPH,Humidity,HourlyPrecipIn,Conditions,Clouds,dailyrainin,SolarRadiationWatts/m^2,SoftwareType,DateUTC
2013-11-24 00:00:00,18.3,12.0,29.29,NNE,29,1.0,4.0,76,0.00,FEW,,0.00,0.0,WeatherDisplay:10.37,2013-11-24 06:00:00,
2013-11-24 00:10:00,18.0,12.0,29.29,NNE,29,0.0,2.0,77,0.00,FEW,,0.00,0.0,WeatherDisplay:10.37,2013-11-24 06:10:00,
2013-11-24 00:20:00,17.9,11.9,29.29,NNE,29,1.0,4.0,77,0.00,FEW,,0.00,0.0,WeatherDisplay:10.37,2013-11-24 06:20:00,
2013-11-24 00:30:00,17.8,11.8,29.29,NNE,29,0.0,4.0,77,0.00,FEW,,0.00,0.0,WeatherDisplay:10.37,2013-11-24 06:30:00,
2013-11-24 00:40:00,17.6,11.6,29.29,NNE,30,1.0,5.0,77,0.00,FEW,,0.00,0.0,WeatherDisplay:10.37,2013-11-24 06:40:00,
2013-11-24 00:50:00,17.5,11.5,29.29,NNE,30,1.0,4.0,77,0.00,FEW,,0.00,0.0,WeatherDisplay:10.37,2013-11-24 06:50:00,
2013-11-24 01:00:00,17.3,11.6,29.29,NNE,30,2.0,4.0,78,0.00,FEW,,0.00,0.0,WeatherDisplay:10.37,2013-11-24 07:00:00,
2013-11-24 01:10:00,17.3,11.6,29.28,NE,37,0.0,6.0,78,0.00,FEW,,0.00,0.0,WeatherDisplay:10.37,2013-11-24 07:10:00,
2013-11-24 01:20:00,17.1,11.4,29.28,NE,43,2.0,5.0,78,0.00,FEW,,0.00,0.0,WeatherDisplay:10.37,2013-11-24 07:20:00,
2013-11-24 01:30:00,16.9,11.5,29.27,NE,43,1.0,5.0,79,0.00,FEW,,0.00,0.0,WeatherDisplay:10.37,2013-11-24 07:30:00,
2013-11-24 01:40:00,16.7,11.3,29.27,NE,39,3.0,6.0,79,0.00,FEW,,0.00,0.0,WeatherDisplay:10.37,2013-11-24 07:40:00,
2013-11-24 01:50:00,16.6,11.2,29.27,NE,42,2.0,7.0,79,0.00,FEW,,0.00,0.0,WeatherDisplay:10.37,2013-11-24 07:50:00,
2013-11-24 02:00:00,16.5,11.1,29.27,NE,47,1.0,5.0,79,0.00,FEW,,0.00,0.0,WeatherDisplay:10.37,2013-11-24 08:00:00,
2013-11-24 02:10:00,16.3,11.0,29.28,NE,45,1.0,4.0,79,0.00,FEW,,0.00,0.0,WeatherDisplay:10.37,2013-11-24 08:10:00,
2013-11-24 02:20:00,16.3,10.9,29.28,NE,45,1.0,5.0,79,0.00,FEW,,0.00,0.0,WeatherDisplay:10.37,2013-11-24 08:20:00,
2013-11-24 02:30:00,16.2,10.5,29.28,NE,45,3.0,6.0,78,0.00,FEW,,0.00,0.0,WeatherDisplay:10.37,2013-11-24 08:30:00,
2013-11-24 02:40:00,16.2,10.5,29.28,NE,45,3.0,7.0,78,0.00,FEW,,0.00,0.0,WeatherDisplay:10.37,2013-11-24 08:40:00,
2013-11-24 02:50:00,16.1,10.4,29.29,NE,44,1.0,6.0,78,0.00,FEW,,0.00,0.0,WeatherDisplay:10.37,2013-11-24 08:50:00,
2013-11-24 03:00:00,16.0,10.3,29.29,NE,54,3.0,8.0,78,0.00,FEW,,0.00,0.0,WeatherDisplay:10.37,2013-11-24 09:00:00,
2013-11-24 03:10:00,16.0,10.3,29.28,NE,42,3.0,9.0,78,0.00,FEW,,0.00,0.0,WeatherDisplay:10.37,2013-11-24 09:10:00,
2013-11-24 03:20:00,15.9,10.0,29.28,NE,47,2.0,7.0,77,0.00,FEW,,0.00,0.0,WeatherDisplay:10.37,2013-11-24 09:20:00,
2013-11-24 03:30:00,15.8,10.2,29.28,NE,46,2.0,7.0,78,0.00,FEW,,0.00,0.0,WeatherDisplay:10.37,2013-11-24 09:30:00,
2013-11-24 03:40:00,15.7,10.1,29.28,NE,46,3.0,7.0,78,0.00,FEW,,0.00,0.0,WeatherDisplay:10.37,2013-11-24 09:40:00,
2013-11-24 03:50:00,15.5,9.9,29.28,NE,38,5.0,10.0,78,0.00,FEW,,0.00,0.0,WeatherDisplay:10.37,2013-11-24 09:50:00,
2013-11-24 04:00:00,15.4,9.8,29.28,ENE,57,0.0,10.0,78,0.00,FEW,,0.00,0.0,WeatherDisplay:10.37,2013-11-24 10:00:00,
2013-11-24 04:10:00,15.3,9.9,29.28,ENE,57,1.0,7.0,79,0.00,FEW,,0.00,0.0,WeatherDisplay:10.37,2013-11-24 10:10:00,
2013-11-24 04:20:00,15.0,9.7,29.28,NE,46,1.0,6.0,79,0.00,FEW,,0.00,0.0,WeatherDisplay:10.37,2013-11-24 10:20:00,
2013-11-24 04:30:00,14.9,9.6,29.28,NE,50,2.0,6.0,79,0.00,FEW,,0.00,0.0,WeatherDisplay:10.37,2013-11-24 10:30:00,
2013-11-24 04:40:00,14.8,9.5,29.28,NE,47,3.0,7.0,79,0.00,FEW,,0.00,0.0,WeatherDisplay:10.37,2013-11-24 10:40:00,
2013-11-24 04:50:00,14.7,9.6,29.28,NE,47,3.0,7.0,80,0.00,FEW,,0.00,0.0,WeatherDisplay:10.37,2013-11-24 10:50:00,
2013-11-24 05:00:00,14.6,9.6,29.29,NE,55,1.0,7.0,80,0.00,FEW,,0.00,0.0,WeatherDisplay:10.37,2013-11-24 11:00:00,
2013-11-24 05:10:00,14.5,9.5,29.28,ENE,61,2.0,5.0,80,0.00,FEW,,0.00,0.0,WeatherDisplay:10.37,2013-11-24 11:10:00,
2013-11-24 05:20:00,14.4,9.4,29.28,ENE,59,1.0,7.0,80,0.00,FEW,,0.00,0.0,WeatherDisplay:10.37,2013-11-24 11:20:00,
2013-11-24 05:30:00,14.4,9.4,29.28,ENE,60,1.0,8.0,80,0.00,FEW,,0.00,0.0,WeatherDisplay:10.37,2013-11-24 11:30:00,
2013-11-24 05:40:00,14.3,9.6,29.28,ENE,60,3.0,6.0,81,0.00,FEW,,0.00,0.0,WeatherDisplay:10.37,2013-11-24 11:40:00,
2013-11-24 05:50:00,14.3,9.3,29.29,ENE,59,2.0,7.0,80,0.00,FEW,,0.00,0.0,WeatherDisplay:10.37,2013-11-24 11:50:00,
2013-11-24 06:00:00,14.3,9.6,29.29,ENE,57,2.0,8.0,81,0.00,FEW,,0.00,0.0,WeatherDisplay:10.37,2013-11-24 12:00:00,
2013-11-24 06:10:00,14.3,9.5,29.29,NE,53,1.0,7.0,81,0.00,FEW,,0.00,0.0,WeatherDisplay:10.37,2013-11-24 12:10:00,
2013-11-24 06:20:00,14.3,9.5,29.28,NE,56,3.0,7.0,81,0.00,FEW,,0.00,0.0,WeatherDisplay:10.37,2013-11-24 12:20:00,
2013-11-24 06:30:00,14.3,9.5,29.29,ENE,61,0.0,9.0,81,0.00,FEW,,0.00,0.0,WeatherDisplay:10.37,2013-11-24 12:30:00,
2013-11-24 06:40:00,14.2,9.4,29.29,NE,55,0.0,10.0,81,0.00,FEW,,0.00,0.0,WeatherDisplay:10.37,2013-11-24 12:40:00,
2013-11-24 06:50:00,14.2,9.4,29.30,ENE,57,1.0,5.0,81,0.00,FEW,,0.00,0.0,WeatherDisplay:10.37,2013-11-24 12:50:00,
2013-11-24 07:00:00,14.2,9.7,29.30,ENE,57,1.0,3.0,82,0.00,FEW,,0.00,0.0,WeatherDisplay:10.37,2013-11-24 13:00:00,
2013-11-24 07:10:00,14.2,9.5,29.29,ENE,57,1.0,5.0,81,0.00,FEW,,0.00,0.0,WeatherDisplay:10.37,2013-11-24 13:10:00,
2013-11-24 07:20:00,14.3,9.8,29.29,ENE,57,0.0,4.0,82,0.00,FEW,,0.00,0.0,WeatherDisplay:10.37,2013-11-24 13:20:00,
2013-11-24 07:30:00,14.4,9.9,29.29,ENE,57,0.0,4.0,82,0.00,FEW,,0.00,0.0,WeatherDisplay:10.37,2013-11-24 13:30:00,
2013-11-24 07:40:00,14.5,9.7,29.29,East,89,0.0,5.0,81,0.00,FEW,,0.00,0.0,WeatherDisplay:10.37,2013-11-24 13:40:00,
2013-11-24 07:50:00,14.7,9.9,29.29,East,95,0.0,4.0,81,0.00,FEW,,0.00,0.0,WeatherDisplay:10.37,2013-11-24 13:50:00,
2013-11-24 08:00:00,14.8,10.0,29.29,East,84,1.0,5.0,81,0.00,FEW,,0.00,0.0,WeatherDisplay:10.37,2013-11-24 14:00:00,
2013-11-24 08:10:00,15.1,10.1,29.29,ENE,78,0.0,4.0,80,0.00,FEW,,0.00,0.0,WeatherDisplay:10.37,2013-11-24 14:10:00,
2013-11-24 08:20:00,15.4,10.3,29.28,ENE,78,1.0,4.0,80,0.00,FEW,,0.00,0.0,WeatherDisplay:10.37,2013-11-24 14:20:00,
2013-11-24 08:30:00,15.8,10.7,29.29,East,79,2.0,5.0,80,0.00,FEW,,0.00,0.0,WeatherDisplay:10.37,2013-11-24 14:30:00,
2013-11-24 08:40:00,16.0,10.6,29.30,East,87,0.0,5.0,79,0.00,FEW,,0.00,0.0,WeatherDisplay:10.37,2013-11-24 14:40:00,
2013-11-24 08:50:00,16.2,10.5,29.30,East,87,0.0,5.0,78,0.00,FEW,,0.00,0.0,WeatherDisplay:10.37,2013-11-24 14:50:00,
2013-11-24 09:00:00,16.4,10.7,29.30,East,88,0.0,3.0,78,0.00,FEW,,0.00,0.0,WeatherDisplay:10.37,2013-11-24 15:00:00,
2013-11-24 09:10:00,16.9,11.2,29.29,East,88,1.0,4.0,78,0.00,FEW,,0.00,0.0,WeatherDisplay:10.37,2013-11-24 15:10:00,
2013-11-24 09:20:00,17.4,11.7,29.30,East,88,0.0,1.0,78,0.00,FEW,,0.00,0.0,WeatherDisplay:10.37,2013-11-24 15:20:00,
2013-11-24 09:30:00,17.8,11.6,29.29,East,88,0.0,1.0,76,0.00,FEW,,0.00,0.0,WeatherDisplay:10.37,2013-11-24 15:30:00,
2013-11-24 09:40:00,18.0,11.4,29.29,East,88,0.0,5.0,75,0.00,FEW,,0.00,0.0,WeatherDisplay:10.37,2013-11-24 15:40:00,
2013-11-24 09:50:00,18.3,11.7,29.30,East,88,0.0,1.0,75,0.00,FEW,,0.00,0.0,WeatherDisplay:10.37,2013-11-24 15:50:00,
2013-11-24 10:00:00,18.5,11.9,29.28,East,89,1.0,5.0,75,0.00,FEW,,0.00,0.0,WeatherDisplay:10.37,2013-11-24 16:00:00,
2013-11-24 10:10:00,18.7,11.8,29.28,ESE,119,3.0,6.0,74,0.00,FEW,,0.00,0.0,WeatherDisplay:10.37,2013-11-24 16:10:00,
2013-11-24 10:20:00,18.8,11.9,29.28,SE,124,0.0,5.0,74,0.00,FEW,,0.00,0.0,WeatherDisplay:10.37,2013-11-24 16:20:00,
2013-11-24 10:30:00,19.4,12.1,29.28,SE,128,3.0,6.0,73,0.00,FEW,,0.00,0.0,WeatherDisplay:10.37,2013-11-24 16:30:00,
2013-11-24 10:40:00,19.7,12.1,29.27,SE,131,1.0,5.0,72,0.00,FEW,,0.00,0.0,WeatherDisplay:10.37,2013-11-24 16:40:00,
2013-11-24 10:50:00,20.0,12.1,29.27,SE,133,2.0,5.0,71,0.00,FEW,,0.00,0.0,WeatherDisplay:10.37,2013-11-24 16:50:00,
2013-11-24 11:00:00,20.5,11.9,29.26,SE,133,1.0,4.0,69,0.00,FEW,,0.00,0.0,WeatherDisplay:10.37,2013-11-24 17:00:00,
2013-11-24 11:10:00,20.8,12.3,29.25,SE,133,1.0,5.0,69,0.00,FEW,,0.00,0.0,WeatherDisplay:10.37,2013-11-24 17:10:00,
2013-11-24 11:20:00,21.4,12.5,29.24,SE,140,1.0,6.0,68,0.00,FEW,,0.00,0.0,WeatherDisplay:10.37,2013-11-24 17:20:00,
2013-11-24 11:30:00,21.9,13.0,29.24,SE,140,1.0,4.0,68,0.00,FEW,,0.00,0.0,WeatherDisplay:10.37,2013-11-24 17:30:00,
2013-11-24 11:40:00,22.1,11.8,29.24,SSE,165,3.0,7.0,64,0.00,FEW,,0.00,0.0,WeatherDisplay:10.37,2013-11-24 17:40:00,
2013-11-24 11:50:00,22.6,12.6,29.23,SSE,161,0.0,4.0,65,0.00,FEW,,0.00,0.0,WeatherDisplay:10.37,2013-11-24 17:50:00,
2013-11-24 12:00:00,23.0,11.9,29.22,SSE,156,3.0,7.0,62,0.00,FEW,,0.00,0.0,WeatherDisplay:10.37,2013-11-24 18:00:00,
2013-11-24 12:10:00,23.4,13.0,29.21,SSE,153,1.0,5.0,64,0.00,FEW,,0.00,0.0,WeatherDisplay:10.37,2013-11-24 18:10:00,
2013-11-24 12:20:00,24.0,11.7,29.20,SSE,151,3.0,6.0,59,0.00,FEW,,0.00,0.0,WeatherDisplay:10.37,2013-11-24 18:20:00,
2013-11-24 12:30:00,24.1,10.6,29.20,SSE,149,1.0,5.0,56,0.00,FEW,,0.00,0.0,WeatherDisplay:10.37,2013-11-24 18:30:00,
2013-11-24 12:40:00,24.4,10.1,29.19,SE,143,1.0,6.0,54,0.00,FEW,,0.00,0.0,WeatherDisplay:10.37,2013-11-24 18:40:00,
2013-11-24 12:50:00,24.7,10.8,29.19,SE,138,0.0,5.0,55,0.00,FEW,,0.00,0.0,WeatherDisplay:10.37,2013-11-24 18:50:00,
2013-11-24 13:00:00,25.1,10.0,29.18,SE,130,0.0,7.0,52,0.00,FEW,,0.00,0.0,WeatherDisplay:10.37,2013-11-24 19:00:00,
2013-11-24 13:10:00,25.3,11.0,29.17,SE,134,0.0,6.0,54,0.00,FEW,,0.00,0.0,WeatherDisplay:10.37,2013-11-24 19:10:00,
2013-11-24 13:20:00,25.7,10.5,29.17,ESE,120,1.0,6.0,52,0.00,FEW,,0.00,0.0,WeatherDisplay:10.37,2013-11-24 19:20:00,
2013-11-24 13:30:00,25.8,10.6,29.16,ESE,117,0.0,5.0,52,0.00,FEW,,0.00,0.0,WeatherDisplay:10.37,2013-11-24 19:30:00,
2013-11-24 13:40:00,26.2,11.4,29.15,ESE,117,1.0,5.0,53,0.00,FEW,,0.00,0.0,WeatherDisplay:10.37,2013-11-24 19:40:00,
2013-11-24 13:50:00,26.9,10.3,29.16,SE,125,0.0,6.0,49,0.00,FEW,,0.00,0.0,WeatherDisplay:10.37,2013-11-24 19:50:00,
2013-11-24 14:00:00,27.2,9.6,29.15,East,97,0.0,6.0,47,0.00,FEW,,0.00,0.0,WeatherDisplay:10.37,2013-11-24 20:00:00,
2013-11-24 14:10:00,27.6,9.5,29.15,SE,143,3.0,10.0,46,0.00,FEW,,0.00,0.0,WeatherDisplay:10.37,2013-11-24 20:10:00,
2013-11-24 14:20:00,27.5,8.4,29.15,SE,146,3.0,9.0,44,0.00,FEW,,0.00,0.0,WeatherDisplay:10.37,2013-11-24 20:20:00,
2013-11-24 14:30:00,27.8,8.7,29.15,SSE,152,1.0,7.0,44,0.00,FEW,,0.00,0.0,WeatherDisplay:10.37,2013-11-24 20:30:00,
2013-11-24 14:40:00,27.8,8.2,29.15,SSE,149,2.0,10.0,43,0.00,FEW,,0.00,0.0,WeatherDisplay:10.37,2013-11-24 20:40:00,
2013-11-24 14:50:00,27.8,8.2,29.14,SE,143,2.0,7.0,43,0.00,FEW,,0.00,0.0,WeatherDisplay:10.37,2013-11-24 20:50:00,
2013-11-24 15:00:00,27.8,8.2,29.14,SSE,150,1.0,7.0,43,0.00,FEW,,0.00,0.0,WeatherDisplay:10.37,2013-11-24 21:00:00,
2013-11-24 15:10:00,27.7,8.0,29.14,SSE,155,2.0,9.0,43,0.00,FEW,,0.00,0.0,WeatherDisplay:10.37,2013-11-24 21:10:00,
2013-11-24 15:20:00,27.7,9.1,29.14,SE,135,3.0,7.0,45,0.00,FEW,,0.00,0.0,WeatherDisplay:10.37,2013-11-24 21:20:00,
2013-11-24 15:30:00,27.7,8.6,29.14,SSE,156,6.0,9.0,44,0.00,FEW,,0.00,0.0,WeatherDisplay:10.37,2013-11-24 21:30:00,
2013-11-24 15:40:00,27.8,8.7,29.14,SSE,148,1.0,9.0,44,0.00,FEW,,0.00,0.0,WeatherDisplay:10.37,2013-11-24 21:40:00,
2013-11-24 15:50:00,27.9,9.3,29.14,SSE,148,0.0,7.0,45,0.00,FEW,,0.00,0.0,WeatherDisplay:10.37,2013-11-24 21:50:00,
2013-11-24 16:00:00,27.9,9.8,29.13,SSE,147,1.0,7.0,46,0.00,FEW,,0.00,0.0,WeatherDisplay:10.37,2013-11-24 22:00:00,
2013-11-24 16:10:00,27.8,9.7,29.13,SE,144,0.0,7.0,46,0.00,FEW,,0.00,0.0,WeatherDisplay:10.37,2013-11-24 22:10:00,
2013-11-24 16:20:00,27.8,9.7,29.12,SE,144,1.0,6.0,46,0.00,FEW,,0.00,0.0,WeatherDisplay:10.37,2013-11-24 22:20:00,
2013-11-24 16:30:00,27.8,10.2,29.12,SE,144,0.0,6.0,47,0.00,FEW,,0.00,0.0,WeatherDisplay:10.37,2013-11-24 22:30:00,
2013-11-24 16:40:00,27.7,10.1,29.12,SE,139,2.0,7.0,47,0.00,FEW,,0.00,0.0,WeatherDisplay:10.37,2013-11-24 22:40:00,
2013-11-24 16:50:00,27.6,10.0,29.12,SE,139,5.0,7.0,47,0.00,FEW,,0.00,0.0,WeatherDisplay:10.37,2013-11-24 22:50:00,
2013-11-24 17:00:00,27.6,10.4,29.11,SE,134,2.0,7.0,48,0.00,FEW,,0.00,0.0,WeatherDisplay:10.37,2013-11-24 23:00:00,
2013-11-24 17:10:00,27.6,10.4,29.11,SE,143,2.0,6.0,48,0.00,FEW,,0.00,0.0,WeatherDisplay:10.37,2013-11-24 23:10:00,
2013-11-24 17:20:00,27.5,10.4,29.11,SSE,149,3.0,6.0,48,0.00,FEW,,0.00,0.0,WeatherDisplay:10.37,2013-11-24 23:20:00,
2013-11-24 17:30:00,27.3,10.7,29.10,SSE,163,1.0,7.0,49,0.00,FEW,,0.00,0.0,WeatherDisplay:10.37,2013-11-24 23:30:00,
2013-11-24 17:40:00,27.2,10.6,29.10,SSE,147,1.0,7.0,49,0.00,FEW,,0.00,0.0,WeatherDisplay:10.37,2013-11-24 23:40:00,
2013-11-24 17:50:00,27.3,10.6,29.10,SSE,147,1.0,6.0,49,0.00,FEW,,0.00,0.0,WeatherDisplay:10.37,2013-11-24 23:50:00,
2013-11-24 18:00:00,27.2,11.0,29.11,SSE,157,3.0,7.0,50,0.00,FEW,,0.00,0.0,WeatherDisplay:10.37,2013-11-25 00:00:00,
2013-11-24 18:10:00,27.2,11.0,29.10,SSE,158,2.0,9.0,50,0.00,FEW,,0.00,0.0,WeatherDisplay:10.37,2013-11-25 00:10:00,
2013-11-24 18:20:00,27.2,11.0,29.10,SSE,163,2.0,7.0,50,0.00,FEW,,0.00,0.0,WeatherDisplay:10.37,2013-11-25 00:20:00,
2013-11-24 18:30:00,27.1,10.9,29.10,SSE,151,5.0,10.0,50,0.00,FEW,,0.00,0.0,WeatherDisplay:10.37,2013-11-25 00:30:00,
2013-11-24 18:40:00,27.1,10.9,29.09,SSE,155,6.0,10.0,50,0.00,FEW,,0.00,0.0,WeatherDisplay:10.37,2013-11-25 00:40:00,
2013-11-24 18:50:00,27.1,10.4,29.08,SE,146,6.0,12.0,49,0.00,FEW,,0.00,0.0,WeatherDisplay:10.37,2013-11-25 00:50:00,
2013-11-24 19:00:00,27.1,10.4,29.08,SE,143,6.0,10.0,49,0.00,FEW,,0.00,0.0,WeatherDisplay:10.37,2013-11-25 01:00:00,
2013-11-24 19:10:00,27.1,10.4,29.08,SE,146,5.0,12.0,49,0.00,FEW,,0.00,0.0,WeatherDisplay:10.37,2013-11-25 01:10:00,
2013-11-24 19:20:00,27.0,10.8,29.07,SSE,147,3.0,12.0,50,0.00,FEW,,0.00,0.0,WeatherDisplay:10.37,2013-11-25 01:20:00,
2013-11-24 19:30:00,27.0,11.3,29.07,SE,144,6.0,10.0,51,0.00,FEW,,0.00,0.0,WeatherDisplay:10.37,2013-11-25 01:30:00,
2013-11-24 19:40:00,26.9,11.2,29.06,SE,145,7.0,12.0,51,0.00,FEW,,0.00,0.0,WeatherDisplay:10.37,2013-11-25 01:40:00,
2013-11-24 19:50:00,26.9,11.6,29.07,SSE,147,5.0,10.0,52,0.00,FEW,,0.00,0.0,WeatherDisplay:10.37,2013-11-25 01:50:00,
2013-11-24 20:00:00,27.0,11.3,29.06,SE,146,5.0,12.0,51,0.00,FEW,,0.00,0.0,WeatherDisplay:10.37,2013-11-25 02:00:00,
2013-11-24 20:10:00,27.0,11.3,29.06,SE,140,6.0,12.0,51,0.00,FEW,,0.00,0.0,WeatherDisplay:10.37,2013-11-25 02:10:00,
2013-11-24 20:20:00,27.0,11.7,29.06,SSE,156,3.0,7.0,52,0.00,FEW,,0.00,0.0,WeatherDisplay:10.37,2013-11-25 02:20:00,
2013-11-24 20:30:00,27.1,11.8,29.06,SSE,151,3.0,10.0,52,0.00,FEW,,0.00,0.0,WeatherDisplay:10.37,2013-11-25 02:30:00,
2013-11-24 20:40:00,27.2,11.4,29.06,SSE,151,3.0,10.0,51,0.00,FEW,,0.00,0.0,WeatherDisplay:10.37,2013-11-25 02:40:00,
2013-11-24 20:50:00,27.2,11.9,29.05,SSE,152,6.0,12.0,52,0.00,FEW,,0.00,0.0,WeatherDisplay:10.37,2013-11-25 02:50:00,
2013-11-24 21:00:00,27.3,12.4,29.05,SSE,155,7.0,12.0,53,0.00,FEW,,0.00,0.0,WeatherDisplay:10.37,2013-11-25 03:00:00,
2013-11-24 21:10:00,27.3,12.0,29.05,SSE,148,8.0,12.0,52,0.00,FEW,,0.00,0.0,WeatherDisplay:10.37,2013-11-25 03:10:00,
2013-11-24 21:20:00,27.3,12.4,29.03,SSE,156,3.0,10.0,53,0.00,FEW,,0.00,0.0,WeatherDisplay:10.37,2013-11-25 03:20:00,
2013-11-24 21:30:00,27.3,12.0,29.02,SE,145,8.0,14.0,52,0.00,FEW,,0.00,0.0,WeatherDisplay:10.37,2013-11-25 03:30:00,
2013-11-24 21:40:00,27.3,11.5,29.02,SSE,152,8.0,12.0,51,0.00,FEW,,0.00,0.0,WeatherDisplay:10.37,2013-11-25 03:40:00,
2013-11-24 21:50:00,27.4,11.6,29.02,SSE,158,5.0,12.0,51,0.00,FEW,,0.00,0.0,WeatherDisplay:10.37,2013-11-25 03:50:00,
2013-11-24 22:00:00,27.4,12.1,29.02,SSE,155,6.0,13.0,52,0.00,FEW,,0.00,0.0,WeatherDisplay:10.37,2013-11-25 04:00:00,
2013-11-24 22:10:00,27.5,12.2,29.02,SSE,151,7.0,12.0,52,0.00,FEW,,0.00,0.0,WeatherDisplay:10.37,2013-11-25 04:10:00,
2013-11-24 22:20:00,27.5,12.2,29.02,SSE,158,6.0,15.0,52,0.00,FEW,,0.00,0.0,WeatherDisplay:10.37,2013-11-25 04:20:00,
2013-11-24 22:30:00,27.4,12.1,29.01,SSE,150,8.0,16.0,52,0.00,FEW,,0.00,0.0,WeatherDisplay:10.37,2013-11-25 04:30:00,
2013-11-24 22:40:00,27.5,12.1,29.01,SE,146,6.0,12.0,52,0.00,FEW,,0.00,0.0,WeatherDisplay:10.37,2013-11-25 04:40:00,
2013-11-24 22:50:00,27.5,12.6,29.01,SSE,158,5.0,12.0,53,0.00,FEW,,0.00,0.0,WeatherDisplay:10.37,2013-11-25 04:50:00,
2013-11-24 23:00:00,27.6,12.7,29.01,SE,144,3.0,10.0,53,0.00,FEW,,0.00,0.0,WeatherDisplay:10.37,2013-11-25 05:00:00,
2013-11-24 23:10:00,27.7,12.8,29.01,SE,143,6.0,12.0,53,0.00,FEW,,0.00,0.0,WeatherDisplay:10.37,2013-11-25 05:10:00,
2013-11-24 23:20:00,27.7,12.8,29.01,SSE,150,7.0,12.0,53,0.00,FEW,,0.00,0.0,WeatherDisplay:10.37,2013-11-25 05:20:00,
2013-11-24 23:30:00,27.7,12.8,29.00,SSE,159,7.0,10.0,53,0.00,FEW,,0.00,0.0,WeatherDisplay:10.37,2013-11-25 05:30:00,
2013-11-24 23:40:00,27.7,13.2,28.99,SSE,162,5.0,12.0,54,0.00,FEW,,0.00,0.0,WeatherDisplay:10.37,2013-11-25 05:40:00,
2013-11-24 23:50:00,27.8,13.3,28.99,SSE,155,3.0,10.0,54,0.00,FEW,,0.00,0.0,WeatherDisplay:10.37,2013-11-25 05:50:00,